Regional Weather Roundup
Issued by NWS Portland, ME

Home | Current Version | Previous Version | Text Only | Print | Product List | Glossary On
Versions: 1 2 3 4 5 6 7 8 9 10 11 12 13 14 15 16 17 18 19 20 21 22 23 24 25 26 27 28 29 30 31 32 33 34 35 36 37 38 39 40 41 42 43 44 45 46 47 48 49 50
000
ASUS41 KGYX 070910
RWRGYX
WEATHER ROUNDUP FOR MAINE AND NEW HAMPSHIRE
NATIONAL WEATHER SERVICE GRAY ME
400 AM EST WED DEC 07 2016

MEZ002-005-006-010-012-015-018-020-021-024-026-027-029-071000-
MAINE

CITY           SKY/WX    TMP DP  RH WIND       PRES   REMARKS
PORTLAND       CLOUDY    28  22  78 N7        29.99F
SANFORD        CLOUDY    29  25  85 N7        29.96F
BAR HARBOR     CLOUDY    22  21  96 N3        30.03F
WISCASSET      MOCLDY    27  22  81 CALM      30.02F
ROCKLAND       CLOUDY    29  26  89 NE8       30.00F
FRYEBURG       CLOUDY    27  25  92 CALM      29.98F
LEWISTONAUBURN CLOUDY    26  22  84 N5        29.99F
AUGUSTA        MOCLDY    23  21  92 NW3       30.00F
WATERVILLE     MOCLDY    23  21  92 NE5       29.97F
BANGOR         MOCLDY    20  18  92 CALM      30.03S
GREENVILLE       N/A     19  18  95 E3        29.90F
MILLINOCKET    CLOUDY    16  14  92 CALM      30.01S
HOULTON        CLOUDY    13  11  92 CALM      29.98R
PRESQUE ISLE   CLOUDY    14  12  92 N6        30.01R
FRENCHVILLE    CLOUDY    18  14  84 NW6       29.94S
CARIBOU        CLOUDY    15  12  88 N3        29.97S
$$

NHZ002-005-008-009-011-012-014-071000-
NEW HAMPSHIRE

CITY           SKY/WX    TMP DP  RH WIND       PRES   REMARKS
PORTSMOUTH     CLOUDY    33  29  82 N6        29.94F
ROCHESTER      CLOUDY    30  24  78 N6        29.95F
NASHUA         LGT SNOW  32  30  93 CALM      29.94F FOG
MANCHESTER     LGT SNOW  33  27  78 N7        29.92F
CONCORD        FLURRIES  34  26  72 N5        29.94F
LACONIA        LGT SNOW  30  28  92 NE8       29.95F FOG
PLYMOUTH       LGT SNOW  29  27  92 CALM      29.95F
BERLIN         CLOUDY    24  19  81 CALM      29.92F
WHITEFIELD     CLOUDY    24  20  84 CALM      29.91F
JAFFREY        LGT SNOW  31  28  89 VRB3      29.90R FOG
KEENE          LGT SNOW  32  30  93 CALM      29.93R FOG
LEBANON        LGT SNOW  30  29  96 CALM      29.92F VSB 1
MT WASHINGTON  SNOW      19  19 100 S12         N/A  VSB 1/16WCI   7
$$

VTZ005-007-008-071000-
VERMONT

CITY           SKY/WX    TMP DP  RH WIND       PRES   REMARKS
ST JOHNSBURY     N/A     27  24  89 MISG      29.92F
MONTPELIER     LGT SNOW  25  24  96 CALM      29.92F FOG
BURLINGTON     LGT SNOW  32  29  88 S3        29.90F FOG
$$

MAZ007-012-024-CTZ003-RIZ002-NYZ038-NYZ072-071000-
SOUTHERN NEW ENGLAND AND NY

CITY           SKY/WX    TMP DP  RH WIND       PRES   REMARKS
BOSTON         LGT RAIN  40  36  86 E16       29.92F
WORCESTER      SNOW      31  30  96 NE6       29.88S VSB 1/4
NANTUCKET      LGT RAIN  41  36  82 NE13      29.86F
PROVIDENCE     CLOUDY    37  34  89 NE9       29.90F
HARTFORD       LGT SNOW  33  31  92 N7        29.91S FOG
ALBANY         LGT SNOW  32  31  96 NW5       29.94R FOG
NEW YORK CITY  LGT RAIN  41  39  93 N7        29.90R FOG
$$

ANZ081-ANZ082-ANZ150-NHZ014-MEZ023>029-071000-
COASTAL MARINE OBSERVATIONS

STATION/POSITION TIME  TEMP    WIND        PRES    WAVE
                       AIR SEA DIR/SP/G            HT/PER
                 (UTC) (F)     (DEG/KT/KT) (MB)    (FT/S)
MOUNT DESERT ROC 0900   33                 1016.2F
MATINICUS ROCK   0800   34      10/  7/  9 1016.0R
ISLE OF SHOALS   0800   40      60/ 13/ 17 1013.8F
JEFFREYS LEDGE   0838      51                N/A     3/11
CASHES LEDGE BUO 0850   39 50   50/ 12/ 16 1014.3F   2/10
GEORGES BANK BUO 0850   45 51              1011.6F   4/ 8
$$

.............KEY..............
   WCI - WIND CHILL
   TC  - TEMPERATURE IN CELSIUS
   VSB - VISIBILITY IN MILES
   HX  - HEAT INDEX
   FAIR- INDICATES FEW OR NO CLOUDS BELOW 12,000 FT, WITH NO
         SIGNIFICANT WEATHER AND/OR OBSTRUCTIONS TO VISIBILITY.





USA.gov is the U.S. government's official web portal to all federal, state and local government web resources and services.